This demonstration page uses our WeatherBlox Daily Observations layout. Learn more.

Left ArrowRight Arrow

44.8408, -93.29828

Hourly Observations for December 28, 2017

Temp ( °F °C ) Dew Point ( °F °C ) Humidity (%) Winds ( mph kmh ) Pressure ( in mb ) Visibility ( mi km ) Precip ( " mm )
12:53 am 00:53 Cloudy 3 -16.1 -5 -20.6 69 69 SE 7 11 30.65 1038 10 16 0.00 0.00
1:53 am 01:53 Cloudy 3 -16.1 -4 -20 72 72 SE 8 13 30.63 1037 9 14 0.00 0.00
2:53 am 02:53 Cloudy with Light Snow 4 -15.6 -2 -18.9 76 76 SE 8 13 30.61 1037 3 5 0.00 0.03
3:53 am 03:53 Cloudy with Light Snow 3 -16.1 -1 -18.3 83 83 SE 10 17 30.58 1035 4 6 0.01 0.25
4:53 am 04:53 Cloudy with Light Snow 3 -16.1 -1 -18.3 83 83 SSE 12 19 30.55 1035 4 6 0.01 0.25
5:49 am 05:49 Cloudy with Light Snow 3 -16 0 -18 85 85 SE 12 19 30.56 1035 3 4 0.01 0.25
5:53 am 05:53 Cloudy with Light Snow 3 -16.1 0 -17.8 87 87 SE 9 15 30.53 1034 3 4 0.01 0.25
6:01 am 06:01 Cloudy with Light Snow 4 -15.6 0 -17.8 83 83 SE 12 19 30.56 1035 3 5 0.00 0.03
6:48 am 06:48 Cloudy with Light Snow 3 -16 0 -18 85 85 SE 9 15 30.56 1035 2 3 0.01 0.25
6:53 am 06:53 Cloudy with Light Snow 4 -15.6 0 -17.8 83 83 SE 10 17 30.52 1033 2 2 0.02 0.51
7:22 am 07:22 Mostly Cloudy with Light Snow 4 -15.6 1 -17.2 88 88 SE 12 19 30.53 1034 1 2 0.01 0.25
7:53 am 07:53 Cloudy with Light Snow 4 -15.6 1 -17.2 88 88 SE 12 19 30.49 1032 1 2 0.02 0.51
8:06 am 08:06 Mostly Cloudy with Light Snow 4 -15.6 1 -17.2 88 88 SE 13 20 30.53 1034 1 1 0.00 0.03
8:15 am 08:15 Cloudy with Light Snow 4 -15.6 1 -17.2 88 88 SSE 12 19 30.53 1034 2 3 0.01 0.25
8:22 am 08:22 Cloudy with Light Snow 4 -15.6 1 -17.2 88 88 S 10 17 30.53 1034 3 5 0.01 0.25
8:40 am 08:40 Cloudy with Light Snow 4 -15.6 1 -17.2 88 88 S 9 15 30.53 1034 3 5 0.01 0.25
8:53 am 08:53 Cloudy with Light Snow 5 -15 0 -17.8 79 79 SSE 14 22 30.48 1032 4 6 0.01 0.25
9:53 am 09:53 Cloudy with Light Snow 5 -15 1 -17.2 83 83 S 10 17 30.49 1032 4 6 0.01 0.25
10:53 am 10:53 Cloudy with Light Snow 6 -14.4 1 -17.2 79 79 S 9 15 30.48 1032 8 13 0.00 0.03
11:37 am 11:37 Cloudy with Light Snow 7 -13.9 2 -16.7 80 80 S 7 11 30.48 1032 4 6 0.00 0.03
11:53 am 11:53 Cloudy with Light Snow 7 -13.9 2 -16.7 80 80 S 9 15 30.45 1031 5 8 0.00 0.03
12:08 pm 12:08 Cloudy with Light Snow 8 -13.3 2 -16.7 76 76 SSW 5 7 30.48 1032 7 11 0.00 0.03
12:36 pm 12:36 Cloudy with Light Snow 8 -13.3 2 -16.7 76 76 SSW 8 13 30.45 1031 6 10 0.00 0.03
12:53 pm 12:53 Cloudy with Light Snow 8 -13.3 3 -16.1 80 80 SSW 7 11 30.43 1031 6 10 0.00 0.03
1:53 pm 13:53 Cloudy with Light Snow 9 -12.8 3 -16.1 77 77 SSW 5 7 30.40 1030 8 13 0.00 0.03
2:10 pm 14:10 Cloudy with Light Snow 9 -12.8 3 -16.1 77 77 SW 6 9 30.42 1030 9 14 0.00 0.03
2:17 pm 14:17 Cloudy with Light Snow 9 -12.8 3 -16.1 77 77 SW 6 9 30.42 1030 9 14 0.00 0.03
2:53 pm 14:53 Cloudy with Light Snow 9 -12.8 3 -16.1 77 77 SW 7 11 30.39 1029 9 14 0.00 0.03
3:53 pm 15:53 Cloudy with Light Snow 9 -12.8 4 -15.6 80 80 WSW 7 11 30.41 1030 4 6 0.00 0.03
4:53 pm 16:53 Cloudy 9 -12.8 4 -15.6 80 80 W 5 7 30.42 1030 9 14 0.00 0.03
5:13 pm 17:13 Cloudy 9 -12.8 5 -15 84 84 W 5 7 30.45 1031 10 16 0.00 0.00
5:53 pm 17:53 Cloudy 10 -12.2 5 -15 80 80 W 3 6 30.40 1030 8 13 0.00 0.00
6:49 pm 18:49 Cloudy 10 -12 7 -14 85 85 SW 5 7 30.42 1030 10 16 0.00 0.00
6:53 pm 18:53 Cloudy 10 -12.2 6 -14.4 84 84 WSW 3 6 30.40 1030 10 16 0.00 0.00
7:53 pm 19:53 Cloudy 10 -12.2 6 -14.4 84 84 SW 6 9 30.40 1029 8 13 0.00 0.03
8:53 pm 20:53 Cloudy 11 -11.7 7 -13.9 84 84 WSW 7 11 30.39 1029 10 16 0.00 0.00
9:23 pm 21:23 Cloudy with Light Snow 11 -11.7 8 -13.3 88 88 W 7 11 30.42 1030 2 3 0.00 0.03
9:41 pm 21:41 Cloudy with Light Snow 11 -11.7 8 -13.3 88 88 WNW 7 11 30.42 1030 4 6 0.00 0.03
9:53 pm 21:53 Cloudy with Light Snow 11 -11.7 8 -13.3 88 88 WNW 8 13 30.38 1029 4 6 0.00 0.03
10:38 pm 22:38 Cloudy 9 -12.8 3 -16.1 77 77 WNW 12 19 30.42 1030 9 14 0.00 0.03
10:53 pm 22:53 Cloudy 8 -13.3 2 -16.7 76 76 WNW 12 19 30.39 1029 10 16 0.00 0.03
11:53 pm 23:53 Mostly Cloudy 5 -15 0 -17.8 79 79 W 9 15 30.41 1030 10 16 0.00 0.00

Powered by AerisWeather